Zurück zum Katalog

COSMOS 1823 DEB

AktivLEO
NORAD 18757·DEBRIS·🇷🇺 Russia

Gestartet Feb 20, 1987 von Plesetsk Cosmodrome

Loading…

Nächste Überflüge (nächste 24 Stunden)

TLE

AktuellSource: Space-Track

Epoche: Sep 14, 2026, 13:24 UTC

1 18757U 87020AJ  26257.55893645  .00005441  00000-0  93154-2 0  9990
2 18757  73.7172 103.2365 0083711  79.7306 310.5107 13.43466351812070

Verfolge COSMOS 1823 DEB in Echtzeit mit AllMySat

Download on the App Store